Weather History for KGSP - August, 2012

Change the Weather History Date:

Tuesday, August 14, 2012

  Actual Average Record
Temperature  
Mean Temperature 77 °F 79 °F  
Max Temperature 87 °F 89 °F 100 °F (1999)
Min Temperature 67 °F 69 °F 57 °F (1884)
Degree Days  
Heating Degree Days 0 0  
Month to date heating degree days 0 0  
Since 1 June heating degree days 0 2  
Since 1 July heating degree days 0 0  
Cooling Degree Days 12 14  
Month to date cooling degree days 186 202  
Year to date cooling degree days 1381 1214  
Since 1 June cooling degree days 1033 1013  
Growing Degree Days 26 (Base 50)    
Moisture  
Dew Point 66 °F    
Average Humidity 69    
Maximum Humidity 87    
Minimum Humidity 51    
Precipitation  
Precipitation 0.00 in 0.14 in 2.10 in (2010)
Month to date precipitation 4.68 2.11  
Year to date precipitation 25.88 30.14  
Snow  
Snow 0.00 in 0.00 in 0.00 in ()
Month to date snowfall 0.0 0.0  
Since 1 June snowfall T 0.0  
Since 1 July snowfall T 0.0  
Snow Depth 0.00 in    
Sea Level Pressure  
Sea Level Pressure 29.92 in    
Wind  
Wind Speed 7 mph (SW)    
Max Wind Speed 18 mph    
Max Gust Speed 22 mph    
Visibility 10 miles    
Events      
T = Trace of Precipitation, MM = Missing Value Source: NWS Daily Summary

Daily Weather History Graph

Daily Weather History Graph

Search for Another Location

Airport or City:

Trip Planner

Search our weather history database for the weather conditions in past years. The results will help you decide how hot, cold, wet, or windy it might be!

Date:

Astronomy

Aug. 14, 2012 Rise Set
Actual Time 6:48 AM EDT 8:17 PM EDT
Civil Twilight 6:21 AM EDT 8:44 PM EDT
Nautical Twilight 5:49 AM EDT 9:16 PM EDT
Astronomical Twilight 5:15 AM EDT 9:50 PM EDT
Moon 3:49 AM EDT (8/14) 6:08 PM EDT (8/14)
Length of Visible Light 14h 22m
Length of Day
13h 28m
Waning Crescent, 10% of the Moon is Illuminated
Aug 14
Waning Crescent
Aug 17
New
Aug 24
First Quarter
Aug 31
Full
Sep 8
Last Quarter

Hourly Weather History & Observations

Time (EDT) Temp. Heat Index Dew Point Humidity Pressure Visibility Wind Dir Wind Speed Gust Speed Precip Events Conditions
12:53 AM 72.0 °F - 63.0 °F 73% 29.96 in 10.0 mi Calm Calm - N/A   Scattered Clouds
1:53 AM 72.0 °F - 64.9 °F 78% 29.96 in 10.0 mi Calm Calm - N/A   Overcast
2:53 AM 71.1 °F - 64.9 °F 81% 29.94 in 10.0 mi Calm Calm - N/A   Clear
3:53 AM 69.1 °F - 64.9 °F 87% 29.93 in 10.0 mi SSW 4.6 mph - N/A   Partly Cloudy
4:53 AM 69.1 °F - 64.9 °F 87% 29.94 in 10.0 mi South 3.5 mph - N/A   Mostly Cloudy
5:53 AM 69.1 °F - 63.0 °F 81% 29.93 in 10.0 mi SW 3.5 mph - N/A   Partly Cloudy
6:53 AM 68.0 °F - 64.0 °F 87% 29.95 in 10.0 mi WSW 3.5 mph - N/A   Partly Cloudy
7:53 AM 69.1 °F - 64.9 °F 87% 29.95 in 10.0 mi West 4.6 mph - N/A   Partly Cloudy
8:53 AM 75.0 °F - 63.0 °F 66% 29.95 in 10.0 mi WSW 6.9 mph - N/A   Clear
9:53 AM 75.9 °F - 62.1 °F 62% 29.95 in 10.0 mi West 5.8 mph - N/A   Clear
10:53 AM 78.1 °F - 59.0 °F 52% 29.95 in 10.0 mi SW 5.8 mph - N/A   Clear
11:53 AM 81.0 °F 82.5 °F 64.0 °F 56% 29.96 in 10.0 mi WSW 8.1 mph - N/A   Clear
12:53 PM 82.9 °F 85.0 °F 66.0 °F 56% 29.93 in 10.0 mi West 10.4 mph 17.3 mph N/A   Clear
1:53 PM 82.0 °F 84.1 °F 66.0 °F 58% 29.91 in 10.0 mi SW 12.7 mph - N/A   Clear
2:53 PM 82.9 °F 85.4 °F 66.9 °F 58% 29.89 in 10.0 mi SW 8.1 mph - N/A   Clear
3:53 PM 84.0 °F 86.5 °F 66.9 °F 56% 29.88 in 10.0 mi SSW 11.5 mph - N/A   Clear
4:53 PM 86.0 °F 88.2 °F 66.0 °F 51% 29.86 in 10.0 mi SSW 13.8 mph - N/A   Scattered Clouds
5:53 PM 84.0 °F 86.3 °F 66.0 °F 55% 29.86 in 10.0 mi SSW 13.8 mph 21.9 mph N/A   Clear
6:53 PM 82.0 °F 84.9 °F 68.0 °F 62% 29.87 in 10.0 mi WSW 8.1 mph - N/A   Partly Cloudy
7:53 PM 81.0 °F 83.8 °F 68.0 °F 65% 29.88 in 10.0 mi SW 9.2 mph - N/A   Clear
8:53 PM 79.0 °F - 69.1 °F 72% 29.89 in 10.0 mi SW 5.8 mph - N/A   Partly Cloudy
9:53 PM 78.1 °F - 70.0 °F 76% 29.90 in 10.0 mi SW 3.5 mph - N/A   Clear
10:53 PM 75.9 °F - 70.0 °F 82% 29.91 in 10.0 mi West 4.6 mph - N/A   Clear
11:53 PM 73.9 °F - 70.0 °F 87% 29.91 in 10.0 mi West 4.6 mph - N/A   Clear